This is the latest recevied weather packets stored in our database for station/object WA1OUI. If no packets are shown the sender has not sent any weather packets the latest 10 day(s).
| Time | Temp. | Humidity | Pressure | Rain* | Wind** | Luminosity | Snow |
|---|---|---|---|---|---|---|---|
| 1777817874 | 10° C | 49% | 1007.3 hPa | 0 mm | - | 233 W/m² | - |
| 1777817572 | 10° C | 53% | 1007.4 hPa | 0 mm | - | 210 W/m² | - |
| 1777817268 | 9.44° C | 54% | 1007.2 hPa | 0 mm | - | 184 W/m² | - |
| 1777816965 | 9.44° C | 53% | 1007.3 hPa | 0 mm | - | 183 W/m² | - |
| 1777816661 | 9.44° C | 53% | 1007.4 hPa | 0 mm | - | 271 W/m² | - |
| 1777816358 | 9.44° C | 52% | 1007.5 hPa | 0 mm | - | 200 W/m² | - |
| 1777816056 | 9.44° C | 52% | 1007.2 hPa | 0 mm | - | 236 W/m² | - |
| 1777815753 | 8.89° C | 57% | 1007.3 hPa | 0 mm | - | 170 W/m² | - |
| 1777815451 | 8.89° C | 55% | 1007.5 hPa | 0 mm | - | 198 W/m² | - |
| 1777815148 | 8.89° C | 57% | 1007.7 hPa | 0 mm | - | 219 W/m² | - |
| 1777814845 | 8.89° C | 56% | 1007.5 hPa | 0 mm | - | 196 W/m² | - |
| 1777814541 | 8.89° C | 58% | 1007.6 hPa | 0 mm | - | 194 W/m² | - |
| 1777814238 | 8.89° C | 56% | 1007.8 hPa | 0 mm | - | 191 W/m² | - |
| 1777813935 | 8.33° C | 57% | 1007.7 hPa | 0 mm | - | 203 W/m² | - |
| 1777813633 | 8.33° C | 59% | 1007.7 hPa | 0 mm | - | 143 W/m² | - |
| 1777813330 | 7.78° C | 63% | 1007.5 hPa | 0 mm | - | 126 W/m² | - |
| 1777813027 | 7.78° C | 59% | 1007.7 hPa | 0 mm | - | 120 W/m² | - |
| 1777812725 | 7.78° C | 62% | 1007.7 hPa | 0 mm | - | 104 W/m² | - |
| 1777812421 | 7.78° C | 61% | 1007.7 hPa | 0 mm | - | 122 W/m² | - |
| 1777812119 | 7.22° C | 62% | 1007.8 hPa | 0 mm | - | 148 W/m² | - |
| 1777811817 | 7.22° C | 63% | 1007.8 hPa | 0 mm | - | 136 W/m² | - |
| 1777811515 | 6.67° C | 62% | 1007.7 hPa | 0 mm | - | 140 W/m² | - |
| 1777811210 | 6.67° C | 66% | 1007.7 hPa | 0 mm | - | 132 W/m² | - |
| 1777810908 | 6.67° C | 64% | 1007.7 hPa | 0 mm | - | 127 W/m² | - |
| 1777810604 | 6.67° C | 66% | 1007.8 hPa | 0 mm | - | 112 W/m² | - |
* Rain latest hour (hover to see other rain measurements)
** Current wind speed in m/s (hover to see current wind gust speed)